Wind_Speed
39 39 39 38 38 38 38 38 36 35 33 32 31 30 30 30 31 30 30 29 28 26 25 24 23 23 22 21 22 23 23 24 25 24 24 25 25 23 21 21 21 21 21
42 41 40 40 40 41 41 41 40 39 38 36 34 34 34 33 33 33 33 33 32 29 27 26 25 24 24 23 22 23 24 25 26 27 27 27 27 26 24 23 23 22 22
44 43 42 42 42 42 43 43 43 42 41 40 38 36 35 35 34 35 35 35 32 30 28 27 25 24 24 24 23 22 23 24 26 28 29 28 28 27 27 26 25 23 22
44 43 41 42 43 42 42 42 42 42 41 40 38 37 35 35 35 35 34 34 33 31 30 29 28 26 25 25 24 23 24 25 26 27 29 29 29 28 28 28 27 26 24
42 41 39 38 39 40 41 41 41 41 40 39 38 36 35 34 34 34 34 34 32 32 32 30 29 27 26 26 26 25 25 25 26 27 29 30 30 30 29 29 29 28 27
35 35 35 34 35 36 38 38 39 39 39 39 37 36 35 34 34 34 34 35 34 33 32 31 31 29 28 28 25 25 26 26 27 28 29 31 32 32 31 30 30 29 28
28 29 30 32 32 33 34 36 36 37 37 36 36 36 35 35 35 36 35 35 35 35 34 33 32 32 31 30 29 27 26 28 28 28 29 30 32 32 32 31 31 30 28
25 26 26 27 29 30 32 33 34 35 35 36 36 36 36 36 36 36 36 37 37 37 35 34 34 34 31 29 29 29 29 29 29 30 30 31 31 32 32 32 31 30 29
17 18 19 21 23 25 28 31 32 33 33 34 35 36 36 36 36 36 36 36 37 37 36 35 34 32 29 28 29 30 30 30 30 30 31 32 32 33 32 31 30 29 27
11 11 12 13 16 20 23 26 28 30 31 32 32 33 33 33 34 34 34 34 34 35 35 34 33 31 30 30 30 30 29 30 30 31 31 32 33 33 31 30 29 27 25
8 6 7 8 9 12 15 17 20 22 24 25 26 27 28 28 28 29 28 28 28 28 29 28 27 27 26 27 27 29 30 30 30 31 32 32 31 29 28 27 25 24 23
8 6 5 4 2 3 5 7 9 11 13 15 16 17 18 19 19 20 21 21 21 22 22 22 22 23 23 24 24 25 25 24 24 24 25 25 24 24 24 23 23 22 21
10 9 8 6 4 4 3 2 1 1 2 4 5 7 8 9 10 11 12 13 14 15 16 16 17 18 19 19 20 20 20 19 19 19 19 19 19 20 20 20 21 20 20
14 13 11 10 9 7 7 8 7 6 5 4 3 2 2 3 3 4 4 5 6 7 9 11 12 14 15 15 15 15 15 16 16 17 17 18 18 19 20 20 20 19 19
18 18 18 16 14 13 12 11 11 10 9 8 7 7 6 5 4 4 4 3 3 4 6 7 8 10 12 13 13 14 15 15 16 16 17 17 17 18 18 18 19 19 19
20 19 19 18 18 17 16 15 15 13 13 12 11 10 8 7 7 6 6 7 7 8 8 9 10 11 12 14 15 16 17 18 18 18 18 18 18 18 18 18 18 18 18
20 20 20 19 18 18 17 16 16 15 14 13 12 11 10 9 9 9 9 9 9 10 11 13 14 15 16 17 18 18 19 20 19 20 19 19 19 19 18 18 18 18 18
21 21 20 20 20 20 19 18 18 17 17 16 15 14 12 12 11 11 11 12 12 12 13 15 16 18 19 20 21 22 22 22 21 21 21 20 20 19 19 18 18 18 17
21 20 20 20 20 20 20 20 20 19 19 18 17 16 16 15 14 14 14 14 14 13 14 15 15 17 19 20 21 22 23 23 23 22 22 22 21 20 19 18 17 17 17
21 21 21 21 21 21 21 21 21 20 19 19 18 18 18 17 17 16 16 15 15 15 14 14 15 15 16 17 18 19 20 21 22 22 22 21 21 20 19 18 17 17 16
21 21 21 21 20 20 21 21 21 20 20 20 19 19 19 19 19 18 17 17 17 16 15 15 15 14 13 13 14 15 16 17 18 19 19 19 18 17 17 16 16 16 15
19 20 20 19 19 19 20 20 20 20 20 20 20 20 20 20 21 21 20 20 20 19 17 16 15 13 11 10 10 11 11 12 13 14 15 15 14 14 14 14 14 13 12
18 18 18 18 18 18 18 19 19 19 20 20 21 21 21 22 23 23 23 23 23 22 21 20 17 14 11 9 8 7 6 6 6 7 9 10 10 10 11 10 10 10 9
16 16 16 17 17 17 17 18 18 19 20 20 20 20 21 22 23 24 24 25 25 25 25 24 21 18 14 11 8 7 4 2 2 4 6 7 8 8 8 8 8 7 7
14 15 15 16 16 16 16 17 17 17 18 19 19 19 20 21 23 24 25 26 27 27 27 27 26 23 20 17 15 13 11 9 8 7 7 7 7 7 7 7 7 7 6
13 13 14 15 15 15 16 16 16 17 17 18 18 19 20 21 22 23 24 26 27 28 28 29 28 27 25 22 20 18 17 15 14 12 11 10 8 8 9 9 8 7 6
Wind_Direction
261 260 261 261 261 261 261 261 261 261 260 259 260 260 261 263 264 266 268 266 263 263 262 262 264 265 264 265 266 267 266 266 264 264 266 268 269 266 263 265 270 275 279
263 261 261 260 260 261 261 261 261 261 261 260 259 258 259 260 262 263 265 266 263 259 260 261 261 264 265 265 266 269 267 266 263 262 264 267 266 263 263 263 266 270 275
264 262 260 257 257 258 259 259 260 260 260 260 261 260 259 260 262 266 264 264 263 257 257 260 260 262 264 265 265 268 267 266 265 261 261 263 263 261 262 264 265 266 269
262 260 258 257 256 256 256 256 257 258 258 258 259 259 260 260 261 264 264 265 265 263 259 259 260 261 262 264 266 266 266 265 265 261 259 259 260 260 261 263 264 266 268
263 260 257 254 254 253 252 252 253 254 256 256 257 257 258 258 260 262 263 265 266 265 261 260 259 261 262 263 263 265 263 265 265 260 256 255 255 256 257 261 263 266 269
263 261 256 253 252 250 248 248 248 250 252 254 255 256 257 259 260 262 264 265 267 268 266 262 261 262 264 262 262 265 264 265 265 261 256 254 253 252 253 257 261 264 267
268 265 259 254 249 247 246 246 246 247 249 251 253 255 258 260 262 264 266 268 268 267 269 265 263 263 264 263 261 263 265 265 263 261 257 254 252 252 251 254 258 261 264
275 271 265 261 254 250 248 247 248 248 249 251 252 255 259 262 264 265 267 266 265 263 265 267 262 262 262 260 260 262 265 264 261 258 256 253 252 252 252 253 255 258 262
288 283 273 266 258 254 253 251 251 252 252 253 255 258 261 264 266 266 267 267 264 263 264 264 262 263 261 262 263 264 266 262 260 259 257 255 254 253 252 253 256 259 260
304 297 285 274 263 257 255 255 255 256 257 258 259 261 263 265 265 266 267 267 266 264 263 261 262 262 262 263 265 266 266 262 258 258 258 255 251 250 251 253 255 257 258
331 314 294 286 273 263 259 257 256 256 257 259 261 263 264 266 267 267 267 267 265 263 260 258 259 260 263 263 264 265 265 262 260 259 255 252 250 250 251 253 254 256 257
2 356 333 335 320 285 266 264 264 259 257 259 263 266 266 266 267 267 265 263 262 261 258 256 257 259 259 260 261 261 259 257 256 255 252 249 247 250 252 253 254 255 257
36 37 35 42 53 51 57 52 38 6 281 274 272 275 273 271 271 274 268 261 261 260 256 253 255 253 253 252 252 252 249 249 251 250 249 247 247 249 251 252 254 256 257
56 57 59 63 70 76 73 69 66 64 55 43 22 356 336 320 312 299 282 272 267 260 251 248 246 242 242 241 241 243 245 245 246 246 248 248 249 250 251 253 256 258 259
60 60 61 64 67 72 74 70 66 61 57 55 52 43 35 23 8 355 343 334 316 290 271 263 257 251 246 241 242 245 244 246 246 248 250 251 252 252 253 255 257 259 260
60 61 62 64 66 68 70 68 65 62 58 54 51 46 37 29 17 2 345 330 314 301 288 279 271 263 258 254 252 251 251 251 253 255 254 255 256 256 257 258 258 259 261
60 60 62 65 66 66 66 64 61 58 54 49 44 39 31 23 12 0 348 334 319 307 296 285 279 271 267 263 258 258 257 257 256 257 259 259 258 259 260 260 259 261 262
63 63 63 63 62 62 62 60 58 56 52 48 44 39 33 25 17 6 356 346 334 320 308 298 289 281 275 270 266 263 261 260 260 259 258 258 258 259 259 259 259 260 262
63 63 63 63 62 61 60 60 58 56 52 48 44 39 33 26 17 8 360 352 343 333 321 310 300 291 283 278 272 268 265 263 262 260 259 258 257 255 255 255 255 256 258
63 63 64 64 63 62 60 59 56 53 49 44 40 37 33 28 23 17 11 4 356 347 337 325 314 303 294 286 278 272 268 264 261 259 256 255 255 253 252 251 252 255 256
63 64 64 63 61 59 56 55 52 50 46 43 40 38 35 31 27 22 17 11 4 357 349 341 331 319 307 298 288 280 273 265 258 253 251 250 249 247 246 246 247 249 251
64 63 62 60 58 56 53 50 48 46 45 42 40 39 37 34 32 29 25 20 16 11 4 356 347 336 325 313 305 293 279 268 258 249 243 241 241 239 239 239 239 240 242
61 59 57 55 53 50 47 46 45 44 42 41 41 39 38 37 35 33 30 26 23 21 17 11 5 359 351 342 335 323 296 269 251 235 225 221 221 222 224 224 224 225 225
57 55 52 50 48 46 44 43 43 43 41 39 39 38 38 37 35 33 31 30 29 28 26 25 24 23 24 25 27 35 53 88 137 167 181 189 196 200 202 203 203 202 202
51 49 46 44 42 41 41 41 41 40 39 38 38 38 37 36 35 34 34 34 34 34 34 34 36 39 43 48 54 62 71 80 93 108 127 143 155 166 171 173 171 172 178
43 40 38 37 37 37 39 40 40 39 39 38 37 37 36 35 34 34 34 35 35 37 39 40 43 46 50 55 59 65 72 77 84 94 103 111 121 130 137 143 147 149 147
Height
5864 5865 5866 5866 5867 5868 5870 5871 5873 5874 5875 5877 5878 5879 5879 5879 5879 5879 5879 5880 5880 5879 5879 5880 5880 5880 5880 5880 5880 5880 5880 5881 5881 5882 5882 5883 5883 5884 5885 5885 5885 5885 5884
5852 5853 5855 5857 5857 5858 5859 5861 5862 5864 5865 5867 5868 5869 5870 5870 5871 5871 5871 5871 5871 5872 5872 5873 5874 5874 5874 5874 5874 5874 5874 5874 5875 5876 5876 5877 5878 5878 5879 5880 5881 5881 5880
5840 5842 5844 5845 5846 5847 5849 5850 5852 5853 5855 5857 5858 5859 5861 5862 5863 5862 5862 5862 5862 5863 5865 5866 5866 5867 5867 5867 5867 5868 5868 5868 5868 5869 5870 5870 5871 5872 5873 5873 5874 5875 5875
5828 5829 5831 5833 5835 5837 5838 5840 5841 5843 5845 5847 5849 5850 5852 5853 5854 5853 5853 5854 5854 5855 5856 5857 5858 5859 5859 5859 5860 5860 5861 5861 5861 5861 5862 5863 5864 5865 5866 5867 5867 5868 5869
5816 5818 5819 5821 5823 5826 5827 5830 5832 5834 5836 5837 5839 5841 5843 5845 5845 5845 5845 5846 5846 5846 5847 5849 5850 5850 5851 5851 5852 5852 5853 5853 5854 5854 5855 5856 5857 5858 5859 5860 5861 5861 5862
5807 5808 5809 5811 5813 5816 5818 5821 5823 5825 5827 5829 5830 5832 5834 5835 5836 5837 5837 5837 5838 5837 5837 5839 5841 5842 5843 5843 5844 5844 5845 5846 5846 5846 5847 5848 5849 5851 5852 5853 5854 5855 5855
5798 5799 5800 5802 5804 5807 5809 5812 5814 5816 5818 5820 5822 5824 5825 5826 5828 5828 5829 5829 5830 5830 5829 5830 5831 5833 5834 5834 5835 5836 5837 5837 5838 5838 5839 5840 5842 5843 5845 5846 5847 5848 5848
5791 5792 5793 5795 5797 5799 5801 5804 5806 5809 5811 5812 5814 5815 5816 5818 5819 5819 5820 5820 5820 5820 5821 5821 5822 5823 5824 5825 5826 5827 5828 5829 5829 5830 5831 5832 5834 5835 5837 5839 5840 5840 5841
5786 5786 5787 5788 5790 5792 5794 5797 5799 5801 5803 5805 5806 5807 5808 5809 5810 5810 5810 5810 5810 5811 5812 5812 5813 5814 5815 5817 5818 5818 5819 5820 5820 5821 5822 5824 5826 5828 5829 5831 5832 5833 5834
5783 5783 5783 5784 5785 5786 5788 5790 5792 5794 5796 5797 5798 5799 5800 5800 5801 5801 5801 5801 5801 5802 5803 5804 5805 5806 5807 5809 5809 5810 5811 5811 5812 5813 5815 5816 5818 5820 5821 5823 5824 5825 5827
5783 5782 5781 5782 5782 5783 5784 5785 5787 5788 5789 5791 5791 5792 5792 5793 5793 5793 5793 5793 5793 5793 5794 5795 5796 5798 5799 5800 5801 5802 5803 5804 5804 5805 5807 5808 5810 5812 5814 5815 5817 5818 5820
5784 5782 5782 5781 5781 5781 5782 5783 5783 5784 5785 5786 5786 5787 5787 5786 5786 5786 5787 5787 5787 5787 5788 5789 5790 5791 5792 5793 5794 5795 5795 5796 5797 5798 5800 5801 5803 5805 5807 5809 5810 5812 5813
5786 5784 5783 5782 5782 5782 5782 5783 5783 5783 5783 5783 5784 5784 5783 5783 5783 5782 5782 5782 5782 5782 5783 5783 5784 5785 5786 5787 5787 5788 5789 5790 5791 5793 5794 5796 5797 5799 5801 5803 5804 5806 5807
5790 5788 5786 5785 5784 5784 5784 5784 5784 5784 5783 5783 5783 5783 5782 5782 5781 5781 5780 5779 5779 5779 5779 5779 5780 5780 5781 5782 5783 5783 5784 5785 5787 5788 5789 5791 5792 5794 5796 5797 5799 5800 5801
5795 5793 5791 5790 5789 5788 5787 5787 5786 5786 5785 5785 5784 5783 5783 5782 5781 5780 5779 5778 5778 5777 5777 5777 5777 5777 5778 5778 5779 5779 5780 5781 5782 5783 5785 5786 5787 5788 5790 5792 5793 5794 5795
5801 5799 5797 5795 5794 5792 5791 5790 5790 5789 5788 5787 5786 5785 5784 5783 5782 5781 5780 5778 5777 5776 5775 5775 5774 5774 5775 5775 5775 5776 5776 5777 5778 5779 5779 5781 5782 5783 5785 5786 5787 5788 5789
5806 5804 5802 5800 5799 5797 5796 5795 5793 5792 5791 5789 5788 5787 5785 5784 5782 5780 5779 5777 5776 5774 5773 5772 5771 5771 5770 5770 5770 5771 5771 5772 5772 5773 5774 5775 5776 5778 5779 5780 5782 5783 5784
5811 5809 5807 5805 5803 5802 5800 5798 5797 5795 5793 5792 5790 5788 5787 5785 5783 5781 5778 5776 5774 5772 5770 5768 5767 5766 5765 5764 5764 5764 5765 5765 5766 5767 5768 5769 5770 5772 5774 5775 5777 5778 5779
5816 5814 5812 5810 5808 5807 5805 5803 5801 5799 5797 5795 5793 5791 5788 5786 5783 5781 5778 5775 5772 5769 5767 5764 5762 5760 5759 5758 5757 5757 5758 5758 5759 5760 5761 5763 5764 5766 5768 5770 5772 5773 5774
5821 5819 5817 5815 5814 5812 5810 5807 5805 5803 5801 5798 5796 5793 5790 5788 5784 5781 5778 5775 5771 5768 5764 5761 5758 5755 5753 5752 5751 5750 5751 5751 5752 5753 5755 5756 5758 5761 5763 5765 5767 5769 5770
5826 5824 5822 5820 5819 5816 5814 5812 5809 5807 5804 5802 5799 5796 5793 5789 5786 5782 5779 5775 5771 5767 5762 5759 5755 5751 5749 5746 5745 5744 5744 5744 5745 5746 5748 5750 5753 5756 5758 5760 5762 5764 5766
5831 5829 5827 5825 5823 5821 5818 5816 5813 5811 5808 5805 5802 5798 5795 5792 5788 5784 5780 5776 5771 5766 5762 5757 5752 5748 5745 5743 5741 5739 5738 5739 5739 5740 5743 5745 5748 5751 5754 5756 5758 5761 5763
5836 5834 5832 5829 5827 5825 5822 5820 5817 5814 5811 5808 5805 5802 5798 5794 5791 5786 5782 5777 5772 5767 5762 5756 5750 5746 5742 5740 5738 5736 5735 5735 5736 5737 5739 5742 5745 5748 5751 5753 5756 5758 5760
5839 5837 5835 5833 5831 5828 5826 5823 5820 5818 5814 5811 5808 5805 5801 5798 5794 5789 5785 5780 5774 5769 5763 5757 5751 5746 5742 5739 5737 5735 5734 5734 5735 5736 5739 5741 5744 5747 5750 5752 5755 5757 5759
5843 5841 5839 5836 5834 5832 5829 5826 5824 5821 5818 5815 5812 5808 5805 5801 5797 5793 5788 5783 5778 5772 5767 5760 5754 5749 5745 5742 5740 5738 5737 5737 5737 5739 5741 5743 5745 5747 5750 5752 5755 5757 5759
5845 5843 5841 5839 5837 5834 5832 5829 5827 5824 5821 5818 5815 5812 5808 5805 5801 5797 5792 5787 5782 5777 5772 5766 5760 5755 5751 5748 5746 5744 5742 5742 5742 5743 5744 5746 5747 5749 5751 5753 5755 5757 5759